Volver al catálogo

ARVAKER-1

ActivoCienciaSSO
NORAD 63252·PAYLOAD·🇳🇴 Norway

Lanzado Mar 15, 2025 desde Vandenberg Space Force Base

Loading…

Próximos Pases (próximas 24 horas)

TLE

ActualizadoSource: Space-Track

Época: Sep 14, 2026, 15:40 UTC

1 63252U 25052AU  26257.65331626  .00001778  00000-0  16837-3 0  9997
2 63252  97.6734 146.9698 0001027 311.6226  48.4906 14.94850356 81971

Sigue ARVAKER-1 en tiempo real con AllMySat

Download on the App Store